Location: Unspecified
(0.0000°N, 0.0000°E)
Time: 23:59:38
(UTC+00:00)

Tiros 1 despin weight - Visible Passes

Search period start: 15 September 2019 00:00
Search period end: 25 September 2019 00:00
Orbit: 595 x 642 km, 48.2° (Epoch: 15 September)

Date Brightness Start Highest point End Pass type
(mag) Time Alt. Az. Time Alt. Az. Time Alt. Az.
22 Sep ? 19:47:15 10° NNW 19:47:55 14° NNW 19:47:55 14° NNW visible
23 Sep ? 20:03:37 10° NW 20:04:49 18° NW 20:04:49 18° NW visible
24 Sep ? 18:39:34 10° N 18:43:10 24° NE 18:44:45 20° E visible
24 Sep ? 20:21:05 10° WNW 20:21:53 14° W 20:21:53 14° W visible
